Location: Conflandey
(47.7287°N, 6.0456°E)
Time: 22:00:36
(UTC+00:00)

USA 229 - Pass Details

Date: 24 October 2021
Orbit: 946 x 1266 km, 63.4° (Epoch: 25 November)

Event Time Altitude Azimuth Distance (km) Brightness Sun altitude
Rises 17:25:00 0° 187° (S) 3,621 6.7 -9.7°
Reaches altitude 10° 17:27:42 10° 178° (S) 2,701 5.9 -10.1°
Maximum altitude 17:33:19 35° 115° (ESE) 1,560 4.2 -11.1°
Drops below altitude 10° 17:39:17 10° 53° (NE) 2,874 5.5 -12.1°
Enters shadow 17:39:31 - 52° (NE) 2,948 5.5 -12.1°
